Home > Weather > Boston > Past weeks

Flag for USA Past Weather in Boston, Massachusetts, USA — Yesterday and Last 2 Weeks

Now
83 °F

Passing clouds.


Feels Like: 81 °F
Forecast: 69 / 83 °F
Wind: 8 mph from West

Location: Logan International Airport

Current Time: May 31, 2016 at 7:58:36 PM

Latest Report: May 31, 2016 at 6:54 PM


Visibility: 10 mi

Pressure: 29.86 "Hg

Humidity: 31%

Dew Point: 49 °F

Location of BostonLocation

Past Weather in Boston — Graph

°F

Boston Temperature Yesterday

Maximum temperature yesterday: 75 °F (at 3:54 PM)
Minimum temperature yesterday: 53 °F (at 12:54 AM)
Average temperature yesterday: 61 °F

High & Low Weather Summary for the Past Weeks

 TemperatureHumidityPressure
High92 °F (May 28, 1:54 PM)100% (May 30, 6:02 AM)30.22 "Hg (May 30, 6:02 AM)
Low50 °F (May 18, 5:54 AM)21% (May 25, 5:54 PM)29.83 "Hg (May 22, 6:54 AM)
Average62 °F67%30.03 "Hg
* Reported May 16 5:54 PM — May 31 5:54 PM, Boston, Weather by CustomWeather, © 2016

Note: Actual official high and low records may vary slightly from our data, if they occured in-between our weather recording intervals... More about our weather records

Advertising

Boston Weather History for the Previous 24 Hours

Scroll right to see more
 ConditionsComfort  
Time TempWeatherWind HumidityBarometerVisibility
5:54 PM
Tue, May 31
85 °FScattered clouds.12 mph26%29.85 "Hg10 mi
4:54 PM86 °FScattered clouds.13 mph24%29.85 "Hg10 mi
3:54 PM86 °FScattered clouds.14 mph29%29.84 "Hg10 mi
2:54 PM85 °FScattered clouds.17 mph28%29.85 "Hg10 mi
1:54 PM84 °FScattered clouds.16 mph29%29.86 "Hg10 mi
12:54 PM84 °FPartly sunny.14 mph29%29.88 "Hg10 mi
11:54 AM82 °FScattered clouds.10 mph35%29.88 "Hg10 mi
10:54 AM80 °FPartly sunny.12 mph38%29.91 "Hg10 mi
9:54 AM78 °FPartly sunny.15 mph46%29.91 "Hg10 mi
8:54 AM76 °FPartly sunny.7 mph60%29.92 "Hg10 mi
7:54 AM74 °FPartly sunny.9 mph74%29.92 "Hg10 mi
6:54 AM72 °FCloudy.9 mph81%29.90 "Hg10 mi
5:54 AM70 °FMostly cloudy.10 mph90%29.89 "Hg10 mi
4:54 AM70 °FPassing clouds.10 mph87%29.88 "Hg10 mi
3:54 AM71 °FClear.13 mph84%29.88 "Hg10 mi
2:54 AM68 °FClear.13 mph96%29.88 "Hg10 mi
1:54 AM68 °FPassing clouds.9 mph93%29.87 "Hg10 mi
12:54 AM68 °FClear.12 mph93%29.88 "Hg10 mi
11:54 PM
Mon, May 30
68 °FPassing clouds.12 mph93%29.88 "Hg10 mi
10:54 PM68 °FPassing clouds.14 mph93%29.89 "Hg10 mi
9:54 PM68 °FOvercast.12 mph93%29.90 "Hg10 mi
8:54 PM69 °FMore clouds than sun.13 mph90%29.89 "Hg10 mi
7:54 PM70 °FCloudy.18 mph90%29.88 "Hg10 mi
Weather by CustomWeather, © 2016

See weather overviewHow to use our weather pages